Regional Weather Roundup
Issued by NWS

Home | Current Version | Previous Version | Text Only | Print | Product List | Glossary Off
Versions: 1 2 3 4 5 6 7 8 9 10 11 12 13 14 15 16 17 18 19 20 21 22 23 24 25 26 27 28 29 30 31 32 33 34 35 36 37 38 39 40 41 42 43 44 45 46 47 48 49 50

000
ASUS43 KMPX 010710
RWRMN
WEATHER ROUNDUP FOR MINNESOTA
NATIONAL WEATHER SERVICE TWIN CITIES/CHANHASSEN MN
100 AM CST SUN FEB 01 2015


NOTE: "FAIR" INDICATES FEW OR NO CLOUDS BELOW 12,000 FEET WITH NO
SIGNIFICANT WEATHER AND/OR OBSTRUCTIONS TO VISIBILITY. N/A MEANS
CURRENT SKY AND/OR WEATHER CONDITIONS ARE NOT AVAILABLE.

MNZ060>063-068>070-010800-
   Twin Cities Metro

CITY           SKY/WX    TMP DP  RH WIND       PRES   REMARKS
TWIN CITIES    CLOUDY    19   8  62 NE15      30.20S WCI   5
ST PAUL        CLOUDY    20   9  62 NE18G24   30.23S WCI   5
CRYSTAL        CLOUDY    20   7  57 NE10G23   30.21S WCI   9
BLAINE         CLOUDY    19  10  68 NE12G21   30.22S WCI   7
LAKEVILLE      CLOUDY    18  12  79 NE17      30.16F WCI   2
EDEN PRAIRIE   CLOUDY    20   7  57 NE14G23   30.18S WCI   7
SOUTH ST PAUL  CLOUDY    20  10  63 NE14G21   30.20F WCI   7
LAKE ELMO      CLOUDY    19  10  68 NE14G22   30.22S WCI   6
$$
MNZ001>005-007-008-013>017-022>024-027-028-010800-
   Northwest Minnesota

CITY           SKY/WX    TMP DP  RH WIND       PRES   REMARKS
BEMIDJI        PTCLDY    -7 -13  73 NE8       30.39S WCI -23
HALLOCK        PTCLDY   -11 -22  58 N14       30.58R WCI -33
ROSEAU         PTCLDY   -13 -18  77 N8        30.53R WCI -30
WARROAD        MOCLDY   -15 -20  76 NW3       30.51S
THIEF RVR FALL PTCLDY    -8 -15  71 N10       30.48S WCI -26
CROOKSTON      PTCLDY    -8 -15  71 N14G20    30.53R WCI -28
FOSSTON        PTCLDY    -8 -13  77 NE13      30.42S WCI -28
DETROIT LAKES  FAIR       1  -6  71 NE13      30.36R WCI -16
MOORHEAD       PTCLDY     1  -8  66 N18G24    30.43R WCI -19
PARK RAPIDS    MOCLDY     0  -9  65 NE10G17   30.33S WCI -16
MAHNOMEN       PTSUNNY   -3 -11  69 NE14      30.40R WCI -23
$$
MNZ006-009>011-018-025>026-010800-
   North Central Minnesota

CITY           SKY/WX    TMP DP  RH WIND       PRES   REMARKS
BAUDETTE       MOCLDY   -13 -19  75 N7        30.47S WCI -29
FLAG ISLAND    MOCLDY   -15 -18  84 N9        30.51S WCI -33
INTL FALLS     PTCLDY   -13 -19  75 N5        30.46R WCI -25
WASKISH        PTCLDY   -11 -17  77 CALM      30.45S
BIG FORK       CLEAR     -8 -17  65 N5        30.41S WCI -19
LONGVILLE      PTCLDY     0  -9  65 NE5       30.37R WCI -10
GRAND RAPIDS   PTCLDY    -4 -13  65 N7        30.35R WCI -18
CRANE LAKE     FAIR     -22 -27  76 CALM      30.47
ORR            FAIR     -13 -20  70 CALM      30.38S
COOK           PTCLDY   -11 -17  77 N3        30.40S
WALKER         FAIR      -3 -11  67 NE6       30.37S WCI -15
$$
MNZ012-019>021-037-010800-
   Northeast Minnesota

CITY           SKY/WX    TMP DP  RH WIND       PRES   REMARKS
DULUTH         MOCLDY     0 -10  63 N10       30.30S WCI -16
ELY            CLEAR    -11 -17  77 CALM      30.38S
HIBBING        MOCLDY    -4 -14  62 NE6       30.36F WCI -16
EVELETH        MOCLDY    -2 -11  65 NE9       30.36F WCI -18
DULUTH HARBOR  CLOUDY    10   3  72 NE23      30.38S WCI -10
TWO HARBORS    PTCLDY     3  -8  60 NE7       30.33S WCI  -9
SILVER BAY     MOCLDY     0 -11  60 N3        30.36R
GRAND MARAIS     N/A     -3 -16  53 N12G18    30.46R WCI -21
G MARAIS ARPRT PTCLDY   -11 -20  64 N12       30.31S WCI -31
$$
MNZ029>031-032-039>041-046>048-054>057-064-010800-
   West Central Minnesota

CITY           SKY/WX    TMP DP  RH WIND       PRES   REMARKS
FERGUS FALLS   MOCLDY     5  -6  61 NE12G20   30.36S WCI -11
WHEATON        CLOUDY     9   0  66 N14G20    30.35R WCI  -8
MORRIS         CLOUDY    12   1  62 N16       30.27R WCI  -4
ALEXANDRIA     CLOUDY    11  -1  58 NE16      30.25S WCI  -6
ELBOW LAKE     MOCLDY     8  -1  65 NE12G17   30.29R WCI  -7
WADENA         PTCLDY     3  -6  66 NE12G17   30.30F WCI -13
GLENWOOD       CLOUDY    12   1  62 NE23      30.23S WCI  -7
APPLETON       CLOUDY    18   5  57 NE16      30.25S WCI   3
BENSON         CLOUDY    16   3  57 NE10      30.24S WCI   3
ORTONVILLE     CLOUDY    12   3  67 N17       30.27R WCI  -5
MADISON        LGT SNOW  19  12  73 N18G25    30.24S WCI   4
WILLMAR        MOCLDY    19   7  58 NE17G24   30.22R WCI   4
$$
MNZ033>034-036-042>043-049>051-058-059-010800-
   Central Minnesota

CITY           SKY/WX    TMP DP  RH WIND       PRES   REMARKS
ST CLOUD       CLOUDY    15   2  56 NE13      30.25S WCI   1
SAUK CENTRE    CLOUDY    12   0  58 N16       30.25S WCI  -4
PAYNESVILLE    CLOUDY    14   2  59 N13G22    30.23S WCI   0
AITKIN         MOCLDY     7  -6  56 NE8       30.33R WCI  -6
PINE RIVER     MOCLDY     1  -8  66 NE9       30.37R WCI -14
BRAINERD       MOCLDY     5  -5  63 NE14      30.32S WCI -12
STAPLES        MOCLDY     5  -6  61 N9        30.31S WCI  -9
LONG PRAIRIE   CLOUDY    10   0  61 N10G20    30.27S WCI  -3
LITTLE FALLS   CLOUDY    12  -2  52 NE9       30.30S WCI   0
LITCHFIELD     CLOUDY    19   9  63 NE16G24   30.20S WCI   5
BUFFALO        CLOUDY    18   7  61 NE18G29   30.23S WCI   3
MAPLE LAKE     CLOUDY    19   9  64 NE15      30.23F WCI   5
$$
MNZ037-044-045-052-053-010800-
   East Central Minnesota

CITY           SKY/WX    TMP DP  RH WIND       PRES   REMARKS
PRINCETON      CLOUDY    18   7  62 NE13G21   30.26R WCI   4
MORA           CLOUDY    12   0  57 N8        30.31R WCI   1
CAMBRIDGE      CLOUDY    18   7  62 NE10G18   30.25S WCI   6
RUSH CITY      CLOUDY    15   6  67 NE14G20   30.28S WCI   1
MOOSE LAKE     MOCLDY     7  -4  61 N7        30.32R WCI  -5
HINCKLEY       CLOUDY    12   5  73 NE9G20    30.31R WCI   0
CLOQUET        MOCLDY     1  -9  60 N3        30.32R
MCGREGOR       MOCLDY     5  -6  61 N9        30.34S WCI  -9
$$
MNZ071>073-080-081-089-090-097-098-010800-
   Southwest Minnesota

CITY           SKY/WX    TMP DP  RH WIND       PRES   REMARKS
MONTEVIDEO     CLOUDY    18  10  73 E17G25    30.23R HAZE    WCI   2
GRANITE FALLS  CLOUDY    21  10  61 N21G26    30.20R WCI   5
CANBY          LGT SNOW  17  13  87 N16       30.21R WCI   1
MARSHALL       CLOUDY    21   9  58 NE16G25   30.16S WCI   7
REDWOOD FALLS  CLOUDY    22   9  57 NE15G24   30.16R WCI   9
OLIVIA         CLOUDY    19   9  63 NE18G24   30.17R WCI   4
PIPESTONE      LGT SNOW  19  16  86 NE15G21   30.06S WCI   5
WINDOM         LGT SNOW  21  19  93 NE16G24   30.06S WCI   7
WORTHINGTON    CLOUDY    36  18  48 NE24      30.04S VSB 1
JACKSON        LGT SNOW  23  21  93 NE24      30.03F WCI   7
TRACY          CLOUDY    23  14  68 NE18G24   30.11F WCI   9
SLAYTON        LGT SNOW  20  18  93 NE12G18   30.07S WCI   8
$$
MNZ065>067-074>077-082>085-091>093-010800-
   South Central Minnesota

CITY           SKY/WX    TMP DP  RH WIND       PRES   REMARKS
MANKATO        CLOUDY    21  16  79 NE18      30.11S WCI   6
NEW ULM        CLOUDY    21  10  63 NE18G24   30.13R WCI   6
ST JAMES       LGT SNOW  25  21  86 NE13G20   30.10F WCI  13
FAIRMONT       CLOUDY    23  19  86 NE20      30.03F WCI   8
GLENCOE        CLOUDY    22  13  70 NE9G21    30.17S WCI  11
FARIBAULT      LGT SNOW  21  18  86 NE14G21   30.13F WCI   8
OWATONNA       LGT SNOW  21  18  86 NE16G24   30.10S WCI   7
WASECA         LGT SNOW  23  19  86 NE18G24   30.11S WCI   9
ALBERT LEA     LGT SNOW  25  23  93 NE15      30.05F VSB 1   WCI  12
$$
MNZ078>079-086>088-094>096-010800-
   Southeast Minnesota

CITY           SKY/WX    TMP DP  RH WIND       PRES   REMARKS
ROCHESTER      LGT SNOW  23  20  88 NE17      30.08F FOG     WCI   9
RED WING       CLOUDY    19  10  68 E10G21    30.17S HAZE    WCI   8
STANTON        FLURRIES  22  15  73 NE18G25   30.14S WCI   8
DODGE CENTER   LGT SNOW  21  19  93 NE16G22   30.08F WCI   7
WINONA         LGT SNOW  27  23  86 NE6       30.16R WCI  20
AUSTIN         LGT SNOW  25  21  86 NE16G22   30.05F WCI  12
PRESTON        LGT SNOW  23  22  93 NE9       30.07S WCI  13
$$
ABBREVIATIONS USED IN REMARKS
   TC - TEMPERATURES IN CELSIUS
  WCI - WIND CHILL INDEX
   HX - HEAT INDEX
  VSB - VISIBILITY
$$



USA.gov is the U.S. government's official web portal to all federal, state and local government web resources and services.